Miscellaneous Local Product
Issued by NWS Hastings, NE

Home | Current Version | Previous Version | Graphics & Text | Print | Product List | Glossary On
Versions: 1 2 3 4 5 6 7 8 9 10 11 12 13 14 15 16 17 18 19 20 21 22 23 24 25 26 27 28 29 30 31 32 33 34 35 36 37 38 39 40 41 42 43 44 45 46 47 48 49 50
000
AXUS43 KGID 250902
MISGRI

GID CWA HOURLY WEATHER ROUNDUP
NATIONAL WEATHER SERVICE HASTINGS NE
300 AM CST WED FEB 25 2015

NOTE: "FAIR" INDICATES FEW OR NO CLOUDS BELOW 12,000 FEET WITH NO
SIGNIFICANT WEATHER AND/OR OBSTRUCTIONS TO VISIBILITY.

...SOUTH CENTRAL NEBRASKA...

CITY           SKY/WX    TMP DP  RH WIND       PRES   REMARKS
GRAND ISLAND   MOCLDY    34  23  64 S12       29.75F WCI  25
HASTINGS       PTCLDY    32  21  64 S6        29.76F WCI  26
KEARNEY        PTCLDY    28  21  74 SW8       29.75F WCI  20
ORD            CLOUDY    35  23  61 SW8       29.69F WCI  29
YORK           PTCLDY    32  25  74 S10       29.77F WCI  24
AURORA         PTCLDY    33  23  66 SW13      29.75F WCI  24
LEXINGTON      PTCLDY    32  24  72 W6        29.73F WCI  26
HOLDREGE       PTCLDY    31  25  77 SW9       29.75F WCI  23
HEBRON         PTCLDY    32  22  67 SW5       29.81F WCI  27

...NEBRASKA PANHANDLE...

CITY           SKY/WX    TMP DP  RH WIND       PRES   REMARKS
CHADRON        CLOUDY    42  28  57 W15       29.72F
ALLIANCE       CLOUDY    39  33  79 NW12      29.72F WCI  32
SCOTTSBLUFF    CLOUDY    36  24  62 W6        29.78R WCI  31
SIDNEY         CLOUDY    35  23  61 NW14      29.76S WCI  26

...WESTERN AND NORTH CENTRAL NEBRASKA...

CITY           SKY/WX    TMP DP  RH WIND       PRES   REMARKS
VALENTINE      CLOUDY    42  29  59 W10       29.64S
AINSWORTH      CLOUDY    41  27  57 SW10      29.63F
ONEILL         CLOUDY    40  27  59 SW10      29.64F WCI  33
BROKEN BOW     CLOUDY    37  26  64 SW9       29.70F WCI  30
IMPERIAL         N/A     30  21  69 MISG      29.74F
NORTH PLATTE   MOCLDY    28  22  78 NW8       29.73F WCI  20
MCCOOK         CLEAR     29  23  78 SW8       29.76F WCI  21

...EASTERN NEBRASKA...

CITY           SKY/WX    TMP DP  RH WIND       PRES   REMARKS
NORFOLK        CLOUDY    34  23  64 SE8       29.71F WCI  27
SO SIOUX CITY  CLOUDY    31  19  61 SE12      29.81F WCI  22
TEKAMAH        CLOUDY    31  23  72 E7        29.82F WCI  24
COLUMBUS       CLOUDY    34  19  55 S7        29.77F WCI  28
ALBION         CLOUDY    36  22  58 S5        29.70F WCI  32
OMAHA EPPLEY   CLOUDY    31  21  66 S8        29.82F WCI  23
OFFUTT AFB     MOCLDY    31  23  72 E5        29.81F WCI  26
MILLARD        CLOUDY    32  24  71 CALM      29.81F
LINCOLN        PTCLDY    26  20  77 CALM      29.81F
NEBRASKA CITY  MOCLDY    28  19  69 CALM      29.83F
BEATRICE       CLEAR     25  20  82 SE3       29.82F
FALLS CITY     CLEAR     25  19  78 E5        29.83F WCI  19

...NORTHERN KANSAS...

CITY           SKY/WX    TMP DP  RH WIND       PRES   REMARKS
GOODLAND       CLEAR     26  16  65 W13       29.79F WCI  15
HILL CITY      PTCLDY    26  22  84 W5        29.82F WCI  20
NORTON         SUNNY     25  19  80 SW8       29.77F WCI  16
PHILLIPSBURG   CLEAR     28  25  86 CALM      29.81F
SMITH CENTER   CLEAR     25  21  86 S6        29.82F WCI  18
BELOIT         CLEAR     21  18  86 CALM      29.83F
HAYS           PTCLDY    28  18  64 W8        29.83F WCI  20
RUSSELL        CLEAR     25  23  92 SW8       29.83F WCI  16
CONCORDIA      MOCLDY    34  23  64 SW12      29.82F WCI  25
SALINA         PTCLDY    23  18  81 S6        29.87F WCI  16
TOPEKA         PTCLDY    25  20  81 CALM      29.87F



USA.gov is the U.S. government's official web portal to all federal, state and local government web resources and services.